Regional Weather Roundup
Issued by NWS

Home | Current Version | Previous Version | Text Only | Print | Product List | Glossary On
Versions: 1 2 3 4 5 6 7 8 9 10 11 12 13 14 15 16 17 18 19 20 21 22 23 24 25 26 27
000
ASPQ40 PGUM 262112
RWRPQ
WEATHER ROUNDUP FOR THE MARIANAS AND MICRONESIA
NATIONAL WEATHER SERVICE TIYAN GU
700 AM CHST THU JUL 27 2017

GUZ001>004-262200-
MARIANA ISLANDS-

CITY           SKY/WX    TMP DP  RH WIND       PRES   REMARKS
GUAM AIRPORT   SUNNY     79  79 100 CALM      29.85R
ANDERSEN AFB   SUNNY     79  75  89 SW6       29.86R
ROTA AIRPORT   CLOUDY    79  75  89 S2        29.85R
TINIAN AP      PTSUNNY   82  77  83 SW3       29.82R HX  91
SAIPAN AP      PTSUNNY   84  79  84 SW5       29.83R HX  96

$$

PMZ161-262200-
REPUBLIC OF PALAU-

CITY           SKY/WX    TMP DP  RH WIND       PRES   REMARKS
KOROR AP       MOCLDY    79  75  89 S3        29.80R
KOROR WSO      CLOUDY    82  77  83 S10       29.83R HX  91

$$

PMZ171>174-262200-
FEDERATED STATES OF MICRONESIA-

CITY           SKY/WX    TMP DP  RH WIND       PRES   REMARKS
YAP AIRPORT    LGT RAIN  77  73  88 VRB6      29.82R
CHUUK AP       CLOUDY    82  77  83 VRB5      29.80R HX  91
POHNPEI AP     CLOUDY    79  77  94 E3        29.82R
POHNPEI WSO    CLOUDY    79  77  94 SE3       29.85R
KOSRAE AP      LGT RAIN  79  75  89 E7        29.84

$$

PMZ181-262200-
REPUBLIC OF THE MARSHALL ISLANDS-

CITY           SKY/WX    TMP DP  RH WIND       PRES   REMARKS
KWAJALEIN AP   MOSUNNY   84  77  79 E13       29.84S HX  94
MAJURO AP      PTSUNNY   84  75  74 E7        29.85R HX  92
MAJURO WSO     PTSUNNY   86  77  74 E13       29.83S HX  97

$$





USA.gov is the U.S. government's official web portal to all federal, state and local government web resources and services.